Date,TemperatureHighF,TemperatureAvgF,TemperatureLowF,DewpointHighF,DewpointAvgF,DewpointLowF,HumidityHigh,HumidityAvg,HumidityLow,PressureMaxIn,PressureMinIn,WindSpeedMaxMPH,WindSpeedAvgMPH,GustSpeedMaxMPH,PrecipitationSumIn
2013-1-1,17,8,-1,2,-3,-6,80,62,43,0.00,40.00,9,4,13,0.00
2013-1-2,22,18,10,11,7,-1,81,65,40,0.00,40.00,7,4,13,0.00
2013-1-3,26,19,11,18,14,5,84,79,72,0.00,40.00,11,-11,18,0.00
2013-1-4,32,21,8,13,11,4,89,67,45,0.00,40.00,12,7,21,0.00
2013-1-5,33,24,9,29,19,7,92,82,66,0.00,40.00,9,5,14,0.00
2013-1-6,33,24,15,27,18,13,92,76,58,0.00,40.00,14,8,25,0.00
2013-1-7,37,22,10,24,15,8,92,75,45,0.00,40.00,15,7,25,0.00
2013-1-8,39,32,18,30,25,16,93,77,62,0.00,40.00,11,6,20,0.00
2013-1-9,40,34,24,29,24,17,83,67,38,0.00,40.00,19,11,31,0.00
2013-1-10,38,28,17,32,23,15,93,83,55,0.00,40.00,7,4,14,0.38
2013-1-11,44,38,34,41,36,32,92,92,92,0.00,40.00,6,4,12,0.00
2013-1-12,48,32,20,44,23,9,92,69,56,0.00,40.00,21,11,34,0.00
2013-1-13,19,14,10,9,4,-1,70,63,53,0.00,40.00,13,9,21,0.00
2013-1-14,23,14,5,7,3,-1,83,66,45,0.00,40.00,11,-4,19,0.00
2013-1-15,30,19,6,13,7,2,89,65,36,0.00,40.00,11,5,22,0.00
2013-1-16,32,26,18,29,17,4,90,70,54,0.00,40.00,14,8,26,0.01
2013-1-17,24,17,11,6,0,-5,76,48,33,0.00,40.00,14,7,22,0.00
2013-1-18,44,28,8,30,19,4,89,70,47,0.00,40.00,15,6,27,0.52
2013-1-19,47,35,11,32,24,-5,89,66,35,0.00,40.00,27,10,46,0.48
2013-1-20,14,8,4,-3,-6,-9,65,53,38,0.00,40.00,21,10,42,0.00
2013-1-21,8,0,-7,-1,-11,-16,79,62,48,0.00,40.00,21,10,29,0.21
2013-1-22,4,-4,-9,-8,-13,-16,76,66,49,0.00,40.00,11,5,17,0.00
2013-1-23,17,10,0,11,3,-9,87,74,58,0.00,40.00,15,8,27,4.40
2013-1-24,1,-2,-4,-7,-9,-10,76,71,64,0.00,40.00,11,7,20,0.00
2013-1-30,27,21,15,25,18,9,92,86,76,0.00,40.00,17,12,30,23.00
2013-1-31,11,7,-1,2,-2,-8,76,66,58,0.00,40.00,16,12,26,3.94
2013-2-1,4,0,-8,-1,-10,-14,83,64,47,0.00,40.00,11,7,20,0.24
2013-2-2,15,7,3,0,-2,-7,84,67,41,0.00,40.00,8,3,12,0.29
2013-2-3,20,12,1,7,2,-3,86,67,46,0.00,40.00,14,6,26,0.14
2013-2-4,19,13,7,9,2,-8,88,64,30,0.00,40.00,9,4,12,0.61
2013-2-5,29,18,3,22,11,-2,89,77,64,0.00,40.00,12,6,24,0.45
2013-2-6,28,16,0,25,11,-3,91,84,54,0.00,40.00,6,2,9,0.33
2013-2-7,32,28,23,30,26,18,92,91,83,0.00,40.00,14,6,24,3.91
2013-2-8,31,21,9,18,12,7,88,68,38,0.00,40.00,14,6,24,0.00
2013-2-9,28,19,4,24,15,1,91,85,76,0.00,40.00,14,6,21,0.00
2013-2-10,41,32,21,38,29,19,92,90,81,0.00,40.00,13,5,26,0.14
2013-2-11,38,31,26,33,25,16,89,78,65,0.00,40.00,25,14,35,0.05
2013-2-12,30,25,21,19,15,11,86,66,54,0.00,40.00,12,7,19,0.00
2013-2-13,39,29,20,26,21,17,92,74,48,0.00,40.00,7,4,10,0.00
2013-2-14,34,32,23,32,25,11,91,78,58,0.00,40.00,17,7,26,1.59
2013-2-15,26,18,8,11,2,-2,69,52,32,0.00,40.00,16,8,22,0.00
2013-2-16,19,11,0,2,-4,-10,76,53,31,0.00,40.00,12,6,17,0.00
2013-2-17,24,10,-9,13,-2,-14,82,60,36,0.00,40.00,7,3,13,0.00
2013-2-18,43,33,24,31,23,13,92,68,52,0.00,40.00,14,8,32,0.42
2013-2-19,25,13,6,23,3,-8,92,66,44,0.00,40.00,21,13,32,1.32
2013-2-20,25,14,3,3,-1,-8,71,52,36,0.00,40.00,11,8,24,0.00
2013-2-21,24,16,6,21,10,0,93,79,64,0.00,40.00,13,7,25,0.01
2013-2-22,31,26,22,27,23,19,92,88,81,0.00,40.00,15,6,23,2.34
2013-2-23,32,27,24,22,18,14,86,71,49,0.00,40.00,12,8,18,0.01
2013-2-24,40,28,17,23,17,15,91,67,41,0.00,40.00,8,4,17,0.00
2013-2-25,40,29,19,24,20,16,91,72,45,0.00,40.00,4,2,7,0.00
2013-2-26,34,29,24,26,23,20,92,79,56,0.00,40.00,22,11,39,0.25
2013-2-27,34,31,28,30,27,23,92,84,74,0.00,40.00,17,12,24,0.99
2013-2-28,33,31,26,28,21,14,85,67,55,0.00,40.00,14,11,24,0.00
2013-3-1,30,25,17,19,13,8,83,63,42,0.00,40.00,10,6,19,0.01
2013-3-2,28,19,11,9,4,-2,77,54,29,0.00,40.00,9,6,14,0.00
2013-3-3,35,21,7,9,3,-4,83,51,21,0.00,40.00,7,2,12,0.00
2013-3-4,31,21,9,22,12,3,85,70,55,0.00,40.00,11,6,18,0.00
2013-3-5,28,26,25,25,23,18,93,87,74,0.00,40.00,13,8,23,2.90
2013-3-6,34,27,20,22,19,15,86,74,58,0.00,40.00,12,8,17,0.00
2013-3-7,40,24,9,17,13,6,89,66,32,0.00,40.00,7,2,13,0.00
2013-3-8,38,26,11,24,18,9,91,73,49,0.00,40.00,12,4,21,0.00
2013-3-9,39,34,30,34,28,24,92,81,66,0.00,40.00,11,6,18,0.35
2013-3-10,38,36,32,36,34,30,92,91,90,0.00,40.00,16,7,32,0.94
2013-3-11,35,32,28,31,29,22,91,88,77,0.00,40.00,12,7,21,0.27
2013-3-12,30,27,23,24,18,11,90,69,53,0.00,40.00,19,10,27,0.20
2013-3-13,34,25,17,14,7,-1,81,50,23,0.00,40.00,14,9,24,0.00
2013-3-14,34,26,15,26,17,6,89,70,47,0.00,40.00,9,4,14,0.00
2013-3-15,35,31,26,32,28,24,91,89,80,0.00,40.00,10,5,16,0.79
2013-3-16,32,24,19,24,15,10,91,69,46,0.00,40.00,11,-36,19,0.04
2013-3-17,28,21,12,12,7,2,73,57,45,0.00,40.00,10,7,21,0.00
2013-3-18,32,24,16,29,20,9,91,85,71,0.00,40.00,23,7,33,3.51
2013-3-19,29,20,13,9,4,-2,74,54,30,0.00,40.00,22,17,34,0.01
2013-3-20,20,14,7,0,-3,-8,58,46,37,0.00,40.00,17,12,28,0.00
2013-3-21,31,19,8,6,2,-1,72,51,31,0.00,40.00,12,8,21,0.00
2013-3-22,36,25,12,13,7,4,74,50,28,0.00,40.00,10,3,17,0.00
2013-3-23,42,27,15,19,14,11,87,61,30,0.00,40.00,5,2,14,0.00
2013-3-24,32,30,28,26,22,18,91,73,57,0.00,40.00,13,7,22,0.16
2013-3-25,36,30,23,21,19,15,82,62,52,0.00,40.00,12,10,25,0.00
2013-3-26,40,34,29,24,19,15,66,55,39,0.00,40.00,11,7,22,0.00
2013-3-27,44,37,31,22,17,11,66,46,27,0.00,40.00,9,6,17,0.00
2013-3-28,47,36,26,18,15,11,63,43,23,0.00,40.00,8,4,16,0.00
2013-3-29,50,38,25,23,17,13,75,47,24,0.00,40.00,5,2,9,0.00
2013-3-30,52,42,34,42,29,-100,91,65,43,0.00,40.00,16,7,27,0.00
2013-3-31,44,38,33,38,28,9,91,71,35,0.00,40.00,15,10,26,0.00
2013-4-1,35,29,23,11,7,3,55,40,26,0.00,40.00,17,11,28,0.00
2013-4-2,38,30,22,13,7,0,65,41,20,0.00,40.00,13,9,21,0.00
2013-4-3,44,34,21,17,9,2,70,39,17,0.00,40.00,10,5,14,0.00
2013-4-4,54,43,33,29,22,14,55,43,31,0.00,40.00,19,10,27,0.00
2013-4-5,46,38,30,26,20,16,69,50,30,0.00,40.00,11,5,17,0.37
2013-4-6,58,43,30,49,32,24,91,69,36,0.00,40.00,17,7,24,0.01
2013-4-7,51,42,36,44,32,28,89,69,42,0.00,40.00,16,7,27,0.00
2013-4-8,47,40,36,40,36,31,92,86,78,0.00,40.00,11,5,14,0.39
2013-4-9,39,37,33,36,34,29,92,90,76,0.00,40.00,12,8,26,1.73
2013-4-10,35,32,30,31,30,28,91,90,79,0.00,40.00,16,6,27,1.16
2013-4-11,36,34,33,33,31,29,92,89,79,0.00,40.00,17,12,31,0.28
2013-4-12,38,34,32,35,31,29,92,89,84,0.00,40.00,11,7,19,0.31
2013-4-13,37,34,30,29,26,23,89,74,58,0.00,40.00,15,8,25,0.09
2013-4-14,41,34,29,37,30,26,91,86,79,0.00,40.00,12,7,26,0.08
2013-4-15,56,46,38,45,32,21,92,63,31,0.00,40.00,21,9,38,0.48
2013-4-16,50,41,32,29,27,22,82,61,34,0.00,40.00,12,7,20,0.00
2013-4-17,41,38,34,37,33,29,91,83,68,0.00,40.00,15,8,23,0.74
2013-4-18,46,40,38,44,38,36,92,92,85,0.00,40.00,17,-2,30,0.75
2013-4-19,40,34,30,36,25,17,88,71,45,0.00,40.00,21,14,40,0.16
2013-4-20,44,34,24,21,8,-5,82,41,13,0.00,40.00,13,6,22,0.00
2013-4-21,51,39,29,35,26,15,91,63,34,0.00,40.00,14,6,26,0.33
2013-4-22,65,53,44,38,34,31,75,52,30,0.00,40.00,12,8,23,0.00
2013-4-23,55,43,35,46,33,25,91,70,55,0.00,40.00,15,10,26,0.06
2013-4-24,52,42,31,32,20,11,79,47,21,0.00,40.00,16,8,29,0.00
2013-4-25,50,42,34,36,28,19,91,61,31,0.00,40.00,16,8,29,0.75
2013-4-26,70,54,34,44,32,27,78,47,25,0.00,40.00,17,8,34,0.00
2013-4-27,68,58,48,47,44,39,89,63,40,0.00,40.00,15,7,21,0.00
2013-4-28,73,58,41,45,37,31,91,55,22,0.00,40.00,7,2,13,0.00
2013-4-29,71,60,53,56,51,41,88,74,43,0.00,40.00,15,4,27,0.00
2013-4-30,86,73,59,61,50,40,91,52,20,0.00,40.00,21,10,44,0.08
2013-5-1,77,62,49,48,44,38,80,53,32,0.00,40.00,17,9,29,0.00
2013-5-2,47,42,35,38,35,32,92,78,67,0.00,40.00,16,12,25,0.01
2013-5-3,45,38,34,43,36,32,92,92,90,0.00,40.00,12,8,20,1.45
2013-5-4,69,55,43,50,45,41,92,72,38,0.00,40.00,11,6,16,0.26
2013-5-5,73,60,47,49,42,35,89,57,25,0.00,40.00,7,4,15,0.00
2013-5-6,75,61,47,45,38,30,87,50,20,0.00,40.00,6,-62,17,0.00
2013-5-7,78,64,45,44,35,24,87,42,14,0.00,40.00,11,3,15,0.00
2013-5-8,81,66,47,50,40,29,88,46,15,0.00,40.00,7,3,12,0.00
2013-5-9,65,59,48,58,52,42,91,79,59,0.00,40.00,15,4,24,1.64
2013-5-10,56,46,39,46,40,-100,91,84,65,0.00,40.00,15,8,24,0.88
2013-5-11,52,47,42,47,31,18,91,59,25,0.00,40.00,21,11,39,0.00
2013-5-12,54,44,35,26,18,10,63,39,18,0.00,40.00,15,9,33,0.00
2013-5-13,63,49,29,35,22,11,90,42,13,0.00,40.00,10,-6,16,0.00
2013-5-14,87,68,50,48,42,34,64,43,18,0.00,40.00,12,6,20,0.00
2013-5-15,79,70,61,54,40,33,49,34,22,0.00,40.00,14,9,22,0.00
2013-5-16,80,63,51,49,25,-100,84,44,24,0.00,40.00,9,4,17,0.00
2013-5-17,59,53,48,51,39,-100,91,72,33,0.00,40.00,9,6,16,0.47
2013-5-18,78,63,50,62,55,48,91,77,51,0.00,40.00,6,-37,12,0.00
2013-5-19,84,71,58,63,59,53,91,68,41,0.00,40.00,16,6,26,0.00
2013-5-20,81,71,61,62,58,53,91,65,38,0.00,40.00,12,6,39,1.28
2013-5-21,76,69,63,63,57,51,89,68,46,0.00,40.00,13,-3,23,0.00
2013-5-22,64,58,53,60,55,49,91,89,80,0.00,40.00,10,5,20,2.51
2013-5-23,62,53,46,49,37,21,91,62,22,0.00,40.00,16,10,26,0.10
2013-5-24,63,52,36,42,32,26,90,52,25,0.00,40.00,6,3,12,0.00
2013-5-25,63,54,46,43,35,30,80,51,29,0.00,40.00,7,3,13,0.00
2013-5-26,65,54,42,48,40,34,89,62,33,0.00,40.00,9,4,17,0.00
2013-5-27,56,53,50,52,46,37,91,78,54,0.00,40.00,9,6,18,0.04
2013-5-28,63,56,50,60,53,48,91,90,88,0.00,40.00,7,4,15,0.08
2013-5-29,80,65,59,66,59,56,91,84,46,0.00,40.00,8,4,18,0.28
2013-5-30,81,71,62,69,64,59,91,81,57,0.00,40.00,21,8,35,0.10
2013-5-31,77,69,63,64,61,56,88,76,52,0.00,40.00,16,0,24,0.00
2013-6-1,78,68,56,63,55,48,91,66,38,0.00,40.00,14,7,27,0.01
2013-6-2,63,54,46,57,40,34,89,60,34,0.00,40.00,15,9,26,0.00
2013-6-3,73,60,42,46,39,33,91,53,23,0.00,40.00,8,3,14,0.00
2013-6-4,57,54,51,54,51,48,91,88,77,0.00,40.00,11,4,16,0.06
2013-6-5,59,54,51,54,50,48,91,89,84,0.00,40.00,7,4,13,0.79
2013-6-6,57,54,51,53,50,49,91,89,85,0.00,40.00,8,5,13,0.00
2013-6-7,69,59,50,53,48,45,89,70,42,0.00,40.00,7,3,11,0.00
2013-6-8,69,59,52,56,51,46,91,78,44,0.00,40.00,5,2,9,0.04
2013-6-9,78,65,54,60,54,50,89,71,43,0.00,40.00,11,5,21,0.03
2013-6-10,72,64,59,61,59,56,91,85,66,0.00,40.00,6,3,7,0.00
2013-6-11,80,76,67,66,62,58,89,62,47,0.00,40.00,7,4,13,0.00
2013-6-12,76,66,59,65,62,57,92,87,66,0.00,40.00,17,5,32,3.03
2013-6-13,76,67,59,59,54,49,91,66,39,0.00,40.00,12,7,19,0.00
2013-6-14,77,72,61,58,53,50,82,52,40,0.00,40.00,6,-69,12,0.00
2013-6-15,80,68,58,69,61,51,91,79,57,0.00,40.00,9,5,17,0.72
2013-6-16,84,72,60,65,53,43,91,59,24,0.00,40.00,14,6,20,0.00
2013-6-17,84,70,59,60,54,43,89,61,24,0.00,40.00,17,6,26,0.00
2013-6-18,71,61,53,57,47,39,91,65,33,0.00,40.00,12,7,17,0.00
2013-6-19,78,64,46,54,46,42,91,57,30,0.00,40.00,6,-7,10,0.00
2013-6-20,85,69,58,58,53,49,79,60,29,0.00,40.00,11,5,17,0.00
2013-6-22,78,73,67,70,67,64,91,81,62,0.00,40.00,9,-11,21,1.10
2013-6-23,85,76,65,71,67,62,91,75,53,0.00,40.00,16,8,26,0.27
2013-6-24,81,74,69,69,66,63,89,78,54,0.00,40.00,9,5,18,0.00
2013-6-25,81,72,66,73,67,63,91,85,67,0.00,40.00,7,3,14,0.64
2013-6-26,83,74,69,72,68,63,91,83,51,0.00,40.00,7,2,11,0.00
2013-6-27,88,77,69,71,64,54,91,68,37,0.00,40.00,12,-6,24,0.00
2013-6-28,74,69,65,67,60,56,91,75,56,0.00,40.00,13,-3,22,0.13
2013-6-29,71,65,62,62,59,55,91,82,60,0.00,40.00,14,8,21,0.00
2013-6-30,77,65,57,55,48,39,75,57,26,0.00,40.00,11,-43,19,0.00
2013-7-1,79,68,57,58,49,43,79,55,28,0.00,40.00,10,5,18,0.00
2013-7-2,75,66,57,57,49,37,89,60,26,0.00,40.00,12,5,19,0.00
2013-7-3,72,64,54,62,55,49,89,76,61,0.00,40.00,7,2,10,0.00
2013-7-4,83,71,60,63,56,50,91,63,34,0.00,40.00,8,4,14,0.00
2013-7-5,85,74,61,64,58,51,91,62,31,0.00,40.00,12,-6,19,0.00
2013-7-6,88,73,63,65,61,56,90,71,34,0.00,40.00,9,4,16,0.00
2013-7-7,89,78,66,72,66,63,91,71,43,0.00,40.00,9,4,14,0.00
2013-7-8,89,76,70,73,68,-100,92,82,53,0.00,40.00,9,4,24,1.19
2013-7-9,85,75,68,74,70,65,91,84,59,0.00,40.00,12,4,22,0.27
2013-7-10,79,72,63,69,54,-100,89,59,36,0.00,40.00,14,8,26,0.00
2013-7-11,84,69,56,61,54,47,91,66,28,0.00,40.00,6,2,8,0.00
2013-7-12,82,69,58,60,54,46,91,64,29,0.00,40.00,9,3,15,0.00
2013-7-13,83,72,61,62,57,53,89,63,39,0.00,40.00,7,3,14,0.00
2013-7-14,88,74,59,68,61,56,91,66,36,0.00,40.00,8,3,12,0.00
2013-7-15,92,78,65,74,67,63,91,71,42,0.00,40.00,6,2,10,0.00
2013-7-16,92,83,72,74,71,67,90,69,45,0.00,40.00,9,4,17,0.00
2013-7-17,95,83,74,78,72,64,90,71,37,0.00,40.00,9,4,15,0.00
2013-7-18,93,84,74,74,70,65,90,66,40,0.00,40.00,14,7,26,0.00
2013-7-19,92,83,72,71,66,58,76,59,34,0.00,40.00,17,-43,27,0.00
2013-7-20,83,73,64,62,58,-100,85,63,43,0.00,40.00,7,4,14,0.00
2013-7-21,73,64,59,62,58,54,91,82,55,0.00,40.00,11,4,16,1.17
2013-7-22,85,71,60,71,64,57,91,78,52,0.00,40.00,12,5,20,0.01
2013-7-23,74,68,58,67,54,47,90,62,41,0.00,40.00,14,8,21,0.00
2013-7-24,76,64,52,56,49,43,91,63,34,0.00,40.00,4,2,9,0.00
2013-7-25,79,67,54,66,58,52,91,75,51,0.00,40.00,9,4,19,0.00
2013-7-26,77,67,59,67,58,48,91,76,36,0.00,40.00,13,5,24,0.00
2013-7-27,60,54,48,53,47,40,90,77,58,0.00,40.00,12,8,21,0.00
2013-7-28,68,58,51,52,49,47,92,74,49,0.00,40.00,13,8,24,0.00
2013-7-29,75,62,50,58,52,48,91,73,43,0.00,40.00,7,4,14,0.00
2013-7-30,76,66,56,62,56,53,91,75,45,0.00,40.00,9,4,15,0.00
2013-7-31,80,67,61,65,60,56,91,80,54,0.00,40.00,17,4,25,0.00
2013-8-1,72,63,60,60,57,52,90,82,50,0.00,40.00,10,6,14,0.00
2013-8-2,81,69,58,64,55,45,91,65,29,0.00,40.00,12,5,19,0.00
2013-8-3,76,66,53,55,48,40,90,55,28,0.00,40.00,12,4,20,0.00
2013-8-4,78,64,53,56,50,43,90,64,29,0.00,40.00,6,3,10,0.00
2013-8-5,73,64,56,62,58,53,91,82,60,0.00,40.00,9,-8,17,0.00
2013-8-6,83,73,65,67,63,58,91,74,43,0.00,40.00,9,5,19,0.00
2013-8-7,73,66,61,69,62,59,92,86,71,0.00,40.00,14,6,24,0.00
2013-8-8,79,71,58,62,55,50,90,59,38,0.00,40.00,7,2,10,0.00
2013-8-9,81,70,59,60,54,48,89,61,34,0.00,40.00,13,5,20,0.00
2013-8-10,75,66,55,57,51,45,91,63,36,0.00,40.00,7,3,11,0.00
2013-8-11,68,61,54,65,58,51,91,90,86,0.00,40.00,4,2,7,0.76
2013-8-12,79,68,60,68,57,51,91,72,41,0.00,40.00,10,3,15,0.00
2013-8-13,71,61,51,58,44,-100,89,60,33,0.00,40.00,12,5,20,0.00
2013-8-14,74,61,46,55,46,41,91,65,32,0.00,40.00,7,3,14,0.00
2013-8-15,81,64,55,56,47,-100,91,64,28,0.00,40.00,10,3,16,0.00
2013-8-16,82,69,57,59,50,-100,86,58,26,0.00,40.00,7,2,9,0.00
2013-8-17,83,67,53,58,50,-100,91,63,29,0.00,40.00,6,2,11,0.00
2013-8-18,81,67,52,58,52,46,91,66,30,0.00,40.00,6,2,11,0.00
2013-8-19,82,66,56,62,50,-100,91,68,38,0.00,40.00,10,4,21,0.00
2013-8-20,87,75,61,65,60,58,91,66,38,0.00,40.00,10,5,18,0.00
2013-8-21,89,79,69,71,67,64,91,68,47,0.00,40.00,14,7,26,0.00
2013-8-22,81,69,65,67,63,49,91,81,33,0.00,40.00,8,3,14,0.00
2013-8-23,83,67,55,62,55,49,91,69,31,0.00,40.00,7,2,11,0.00
2013-8-24,85,69,55,67,56,-100,91,69,35,0.00,40.00,10,4,15,0.00
2013-8-25,90,80,71,68,66,64,87,66,42,0.00,40.00,16,8,26,0.00
2013-8-26,91,81,73,76,68,63,87,67,47,0.00,40.00,9,6,24,0.00
2013-8-27,93,81,73,76,70,66,91,73,43,0.00,40.00,10,6,22,0.00
2013-8-28,85,79,70,69,66,64,89,66,48,0.00,40.00,6,3,10,0.00
2013-8-29,88,75,63,71,63,57,91,71,35,0.00,40.00,11,4,14,0.00
2013-8-30,90,79,69,73,68,63,90,71,48,0.00,40.00,12,6,21,0.00
2013-8-31,83,70,61,64,58,-100,91,72,43,0.00,40.00,6,2,12,0.00
2013-9-1,85,71,62,69,60,50,91,73,32,0.00,40.00,14,5,23,0.00
2013-9-2,70,64,54,60,52,45,91,69,41,0.00,40.00,12,6,17,0.00
2013-9-3,71,56,46,52,48,44,92,76,39,0.00,40.00,6,2,13,0.00
2013-9-4,85,67,54,64,54,51,91,68,32,0.00,40.00,9,4,14,0.00
2013-9-5,78,66,57,61,52,47,91,65,33,0.00,40.00,9,4,14,0.00
2013-9-6,87,70,51,63,53,47,89,60,33,0.00,40.00,9,4,16,0.00
2013-9-7,91,77,69,72,61,-100,89,64,40,0.00,40.00,10,5,21,0.00
2013-9-8,72,67,60,67,60,56,90,81,68,0.00,40.00,10,6,22,0.00
2013-9-9,90,76,62,72,65,59,91,71,45,0.00,40.00,13,5,19,0.00
2013-9-10,93,83,75,64,61,57,62,48,30,0.00,40.00,14,8,23,0.00
2013-9-11,82,74,67,66,61,55,89,65,40,0.00,40.00,10,5,16,0.00
2013-9-12,73,65,54,57,49,40,88,60,32,0.00,40.00,16,7,24,0.00
2013-9-13,58,50,44,43,41,33,92,73,39,0.00,40.00,9,4,13,0.00
2013-9-14,72,55,39,47,38,-100,93,60,28,0.00,40.00,9,3,14,0.00
2013-9-15,64,58,54,56,52,47,92,83,62,0.00,40.00,11,5,21,0.51
2013-9-16,63,52,41,50,39,32,91,66,32,0.00,40.00,9,4,19,0.00
2013-9-17,67,54,37,55,45,35,92,75,45,0.00,40.00,9,-54,18,0.17
2013-9-18,68,59,57,65,57,55,91,91,90,0.00,40.00,6,4,10,0.22
2013-9-19,82,72,66,70,66,64,92,85,66,0.00,40.00,13,7,21,0.29
2013-9-20,67,64,55,65,58,48,92,82,52,0.00,40.00,16,7,21,0.04
2013-9-21,61,53,46,52,42,-100,91,72,46,0.00,40.00,12,6,21,0.00
2013-9-22,63,50,39,44,39,34,92,69,36,0.00,40.00,6,3,11,0.00
2013-9-23,69,54,40,49,43,38,92,72,39,0.00,40.00,6,3,14,0.00
2013-9-24,71,55,42,55,45,40,92,74,35,0.00,40.00,11,4,17,0.00
2013-9-25,70,56,46,53,48,44,92,76,42,0.00,40.00,5,-40,11,0.00
2013-9-26,75,55,43,56,47,41,92,79,36,0.00,40.00,9,3,15,0.00
2013-9-27,74,56,46,56,48,44,91,76,40,0.00,40.00,7,2,13,0.00
2013-9-28,78,62,53,64,50,-100,91,69,43,0.00,40.00,19,8,29,0.53
2013-9-29,70,54,44,51,45,35,91,77,27,0.00,40.00,6,2,11,0.00
2013-9-30,66,52,45,47,43,38,91,74,37,0.00,40.00,9,3,17,0.00
2013-10-1,75,68,64,49,46,43,48,45,41,0.00,40.00,6,6,10,0.00
2013-10-2,70,57,45,47,43,36,91,64,29,0.00,40.00,4,2,8,0.00
2013-10-3,72,61,54,63,54,40,91,80,54,0.00,40.00,9,4,16,0.01
2013-10-4,59,58,56,56,55,53,92,92,91,0.00,40.00,12,6,19,0.01
2013-10-5,69,63,58,67,60,55,92,92,91,0.00,40.00,12,4,19,2.81
2013-10-6,60,52,44,57,41,31,91,68,33,0.00,40.00,14,5,21,0.00
2013-10-7,66,53,45,46,42,33,91,71,31,0.00,40.00,14,7,24,0.00
2013-10-8,72,50,39,48,41,37,92,76,32,0.00,40.00,7,2,12,0.00
2013-10-9,73,57,48,49,45,38,91,68,30,0.00,40.00,12,4,17,0.00
2013-10-10,72,52,40,51,44,38,92,77,29,0.00,40.00,9,2,14,0.00
2013-10-11,74,60,46,57,49,44,92,72,41,0.00,40.00,16,4,27,0.00
2013-10-12,69,61,47,58,44,-100,86,60,31,0.00,40.00,15,7,25,0.00
2013-10-13,60,46,38,40,35,27,92,69,30,0.00,40.00,11,5,21,0.00
2013-10-14,63,46,31,40,35,30,93,68,36,0.00,40.00,7,3,17,0.00
2013-10-15,58,51,43,54,46,40,92,86,64,0.00,40.00,12,5,25,0.57
2013-10-16,51,49,45,48,45,41,92,88,78,0.00,40.00,11,5,17,0.00
2013-10-17,54,46,39,42,36,28,91,73,37,0.00,40.00,7,3,12,0.00
2013-10-18,47,43,38,43,38,33,92,82,61,0.00,40.00,19,6,26,0.14
2013-10-19,50,39,31,40,32,-100,93,84,35,0.00,40.00,12,4,20,0.03
2013-10-20,47,39,33,44,37,31,93,91,79,0.00,40.00,9,3,20,0.01
2013-10-21,46,38,32,40,24,14,81,60,39,0.00,40.00,17,11,30,0.00
2013-10-22,46,35,27,27,22,17,87,60,36,0.00,40.00,9,6,13,0.00
2013-10-23,42,34,27,27,23,17,91,68,36,0.00,40.00,14,7,22,0.00
2013-10-24,44,36,31,27,23,18,79,60,36,0.00,40.00,12,8,22,0.00
2013-10-25,50,40,28,29,23,19,90,56,31,0.00,40.00,17,9,32,0.00
2013-10-26,50,46,41,35,24,-100,71,44,33,0.00,40.00,17,10,32,0.00
2013-10-27,54,41,29,30,25,19,90,58,25,0.00,40.00,12,5,21,0.00
2013-10-28,41,38,35,31,27,24,77,63,52,0.00,40.00,11,7,20,0.00
2013-10-29,52,39,33,39,31,24,92,73,57,0.00,40.00,8,5,12,0.00
2013-10-30,54,47,37,51,44,35,93,90,80,0.00,40.00,6,3,11,0.00
2013-10-31,56,52,42,54,49,40,92,92,91,0.00,40.00,15,6,28,0.34
2013-11-1,45,43,39,41,39,35,91,87,80,0.00,40.00,17,9,24,0.00
2013-11-2,43,39,34,37,33,-100,91,84,70,0.00,40.00,9,6,16,0.20
2013-11-3,50,37,26,40,29,24,93,76,40,0.00,40.00,12,3,21,0.00
2013-11-4,51,47,42,44,36,33,84,68,52,0.00,40.00,15,9,26,0.00
2013-11-5,52,47,38,49,43,36,93,87,63,0.00,40.00,9,4,16,1.01
2013-11-6,53,42,31,51,35,17,92,77,44,0.00,40.00,11,8,24,0.33
2013-11-7,41,33,26,27,24,21,91,73,46,0.00,40.00,14,6,18,0.00
2013-11-8,44,35,24,30,26,22,92,73,51,0.00,40.00,14,5,22,0.00
2013-11-9,49,44,39,38,29,-100,75,58,44,0.00,40.00,20,12,34,0.00
2013-11-10,48,42,38,26,23,20,57,48,34,0.00,40.00,17,9,30,0.00
2013-11-11,42,32,22,33,18,4,92,58,38,0.00,40.00,14,9,25,0.92
2013-11-12,30,22,15,11,7,2,77,55,32,0.00,40.00,10,7,18,0.00
2013-11-13,43,28,18,14,10,6,79,52,26,0.00,40.00,18,-41,32,0.00
2013-11-14,48,40,32,28,19,8,58,44,31,0.00,40.00,11,8,21,0.00
2013-11-15,55,42,31,34,30,26,86,63,36,0.00,40.00,9,4,12,0.00
2013-11-16,58,45,35,54,41,-100,93,89,79,0.00,40.00,15,8,29,0.69
2013-11-17,58,50,39,54,45,28,92,84,63,0.00,40.00,21,11,40,0.83
2013-11-18,39,32,24,28,19,15,75,59,50,0.00,40.00,20,13,38,0.00
2013-11-19,38,27,18,26,20,15,91,74,40,0.00,40.00,7,3,12,0.00
2013-11-20,39,35,31,33,27,22,92,73,51,0.00,40.00,12,8,19,0.08
2013-11-21,41,38,35,37,34,32,92,87,77,0.00,40.00,12,4,19,0.00
2013-11-22,35,30,25,32,22,5,88,73,41,0.00,40.00,14,10,24,1.79
2013-11-23,25,16,8,14,-1,-100,73,49,34,0.00,40.00,16,10,26,0.80
2013-11-24,26,17,6,4,-2,-8,82,49,22,0.00,40.00,14,7,24,0.00
2013-11-25,33,28,23,24,16,-1,84,63,32,0.00,40.00,17,10,29,0.12
2013-11-26,33,25,12,24,10,-2,78,56,37,0.00,40.00,16,9,29,0.55
2013-11-27,28,18,10,9,5,0,81,58,33,0.00,40.00,12,7,19,0.00
2013-11-28,29,24,19,11,9,8,73,54,42,0.00,40.00,13,5,19,0.00
2013-11-29,30,21,9,18,12,6,91,71,44,0.00,40.00,9,4,14,0.00
2013-11-30,45,34,27,25,20,-100,76,58,38,0.00,40.00,9,5,14,0.00
2013-12-1,40,32,26,26,23,18,89,71,43,0.00,40.00,6,3,10,0.00
2013-12-2,39,30,20,31,25,18,94,84,61,0.00,40.00,8,-40,15,1.08
2013-12-3,34,33,32,32,32,31,93,93,93,0.00,40.00,11,7,19,0.12
2013-12-4,43,35,32,41,33,28,93,93,79,0.00,40.00,20,6,30,0.00
2013-12-5,34,20,10,28,8,0,79,58,41,0.00,40.00,23,14,35,0.00
2013-12-6,14,7,3,1,-2,-5,77,64,47,0.00,40.00,12,8,21,0.00
2013-12-7,13,4,-3,-4,-9,-100,77,59,35,0.00,40.00,9,5,19,0.00
2013-12-8,13,9,2,10,2,-6,87,72,53,0.00,40.00,9,5,15,0.45
2013-12-9,18,9,-4,10,0,-12,87,69,44,0.00,40.00,18,8,28,0.17
2013-12-10,17,7,-5,6,-3,-11,82,65,46,0.00,40.00,16,9,31,0.00
2013-12-11,12,4,-8,8,-6,-17,87,62,38,0.00,40.00,12,6,19,0.00
2013-12-12,21,10,-5,8,-1,-13,74,61,45,0.00,40.00,10,6,17,0.00
2013-12-13,20,16,14,12,8,3,81,68,56,0.00,40.00,10,6,19,0.00
2013-12-14,22,18,15,16,11,-100,89,81,66,0.00,40.00,13,6,19,0.07
2013-12-15,17,8,-2,13,-4,-14,82,59,37,0.00,40.00,13,9,27,0.10
2013-12-16,13,5,-5,10,-3,-14,88,71,54,0.00,40.00,6,3,9,1.80
2013-12-17,34,25,14,24,16,6,92,73,47,0.00,40.00,18,10,30,0.55
2013-12-18,35,21,7,22,9,1,78,61,36,0.00,40.00,14,5,24,0.00
2013-12-19,30,25,20,25,19,15,92,79,64,0.00,40.00,12,7,21,0.00
2013-12-20,22,20,19,20,18,16,93,90,86,0.00,40.00,12,7,21,0.17
2013-12-21,26,23,21,24,20,-100,93,89,80,0.00,40.00,12,4,20,0.00
2013-12-22,25,23,20,21,19,16,92,85,71,0.00,40.00,12,7,21,14.00
2013-12-23,20,12,0,18,7,-5,92,81,69,0.00,40.00,12,5,19,2.69
2013-12-24,14,3,-8,4,-4,-13,85,72,45,0.00,40.00,6,4,11,1.24
2013-12-25,22,16,8,19,12,4,89,84,76,0.00,40.00,9,5,17,0.27
2013-12-26,22,18,12,17,12,8,90,78,60,0.00,40.00,8,3,16,0.03
2013-12-27,36,23,6,27,16,3,91,78,58,0.00,40.00,12,5,24,0.00
2013-12-28,44,34,20,29,23,-100,93,70,42,0.00,40.00,11,5,20,0.00
2013-12-29,37,20,0,28,11,-11,90,69,54,0.00,40.00,16,10,27,0.00
2013-12-30,2,-1,-13,-4,-12,-20,80,58,41,0.00,40.00,6,3,8,0.08
2013-12-31,7,2,-5,-3,-6,-15,82,69,54,0.00,40.00,9,5,15,0.00
2014-1-1,8,2,-6,-7,-11,-15,63,54,41,0.00,40.00,12,6,17,0.00
2014-1-2,11,6,-2,-1,-6,-12,75,57,41,0.00,40.00,11,7,17,0.01